Regional Weather Roundup
Issued by NWS Albany, NY

Home | Current Version | Previous Version | Graphics & Text | Print | Product List | Glossary Off
Versions: 1 2 3 4 5 6 7 8 9 10 11 12 13 14 15 16 17 18 19 20 21 22 23 24 25 26 27 28

000
ASUS41 KALY 181710
RWRALY

NEW YORK STATE HOURLY WEATHER ROUNDUP
NATIONAL WEATHER SERVICE ALBANY NY
1200 PM EST THU JAN 18 2018

NOTE: "FAIR" INDICATES FEW OR NO CLOUDS BELOW 12,000 FEET WITH NO
SIGNIFICANT WEATHER AND/OR NO OBSTRUCTIONS TO VISIBILITY.

NYZ032-033-038>043-046>054-057>066-NYZ062>081-082-084-181800-
EAST


CITY           SKY/WX    TMP DP  RH WIND       PRES   REMARKS
ALBANY         FAIR      22   9  57 W14       30.04F WCI   9
GLENS FALLS    FAIR      16  12  84 S7        29.99F WCI   6
POUGHKEEPSIE   FAIR      22  10  60 N5        30.02F WCI  16
NEWBURGH       SUNNY     23  12  63 VRB5      30.01F WCI  17
MONTGOMERY     FAIR      24  11  57 N5        29.98F WCI  18
WHITE PLAINS   FAIR      25  12  58 NW14      29.95F WCI  13
ISLIP          FAIR      29  12  49 NW18      29.95F WCI  16
NEW YORK CITY  FAIR      30   8  39 NW17      29.98F WCI  18
CENTRAL PARK   FAIR      29   7  39 VRB7      30.01F WCI  22
$$

NYZ005>009-017-018-044>046-055-056-181800-
CENTRAL


CITY           SKY/WX    TMP DP  RH WIND       PRES   REMARKS
FULTON         CLOUDY    21  11  65 SW15      30.03F WCI   8
SYRACUSE       CLOUDY    20  12  71 W17       30.04F WCI   5
ROME           CLOUDY    15  11  83 W3        30.05F
ELMIRA         FAIR      21   8  57 W13       30.05F WCI   9
BINGHAMTON     FAIR      17   7  64 NW10      29.97F WCI   5
MONTICELLO     FAIR      23  10  57 W10       29.95F WCI  12
$$

NYZ026>034-041>043-087-181800-
NORTH


CITY           SKY/WX    TMP DP  RH WIND       PRES   REMARKS
WATERTOWN      LGT SNOW  20  17  88 S7        30.00F FOG     WCI  11
FORT DRUM      NOT AVBL
OGDENSBURG     FLURRIES  26  20  76 SW9       29.95F WCI  17
MASSENA        FLURRIES  25  20  81 SW14      29.96  WCI  13
SARANAC LAKE   CLOUDY    20  15  81 SW12G18   29.84F WCI   8
PLATTSBURGH    CLOUDY    25  17  72 S8        29.93F WCI  16
$$

NYZ001>004-010>016-019>021-085-181800-
WEST


CITY           SKY/WX    TMP DP  RH WIND       PRES   REMARKS
NIAGARA FALLS  LGT SNOW  23  16  74 SW17G26   30.05F WCI   9
BUFFALO        LGT SNOW  18  14  84 SW21G32   30.06F VSB 3/4 WCI   1
DUNKIRK        LGT SNOW  18  10  71 SW18G29   30.11F WCI   2
JAMESTOWN      LGT SNOW  14   8  77 SW14      30.04F WCI  -1
WELLSVILLE     CLOUDY    14   6  70 W12       29.98F HAZE    WCI   0
ROCHESTER      FLURRIES  22  14  71 W21G30    30.06F WCI   6
PENN YAN       CLOUDY    20   8  60 W14       30.04F WCI   7
$$

             KEY
       WCI = WIND CHILL INDEX
       VSB = VISIBILITY
       HX  = HEAT INDEX
$$




USA.gov is the U.S. government's official web portal to all federal, state and local government web resources and services.